SCP
0 0 0 0 0 0 0 0 0 0 0 0 0 0 0 0 0 1 1 0 0 0 0 1 1 1 1 1 0 0 0 0 0 0 0 0 0 0
0 0 0 0 0 0 0 0 0 0 0 0 0 0 0 0 0 1 1 0 0 0 0 0 0 0 0 0 0 0 0 0 0 0 0 0 0 0
0 0 0 0 0 0 0 0 0 0 0 0 0 0 0 0 0 0 0 0 0 0 0 0 0 0 0 0 0 0 0 0 0 0 0 0 0 0
0 0 0 0 0 0 0 0 0 0 0 0 0 0 0 0 0 0 0 0 0 0 0 0 0 0 0 0 0 0 0 0 0 0 0 0 0 0
0 0 0 0 0 0 0 0 0 0 0 0 0 0 0 0 0 0 0 0 0 0 0 0 0 0 0 0 0 0 0 0 0 0 0 0 0 0
0 0 0 0 0 0 0 0 0 0 0 0 0 0 0 0 0 0 0 0 0 0 0 0 0 0 0 0 0 0 0 0 0 0 0 0 0 0
0 0 0 0 0 0 0 0 0 0 0 0 0 0 0 0 0 0 0 0 0 0 0 0 0 0 0 0 0 0 0 0 0 0 0 0 0 0
0 0 0 0 0 0 0 0 0 0 0 0 0 0 0 0 0 0 0 0 0 0 0 0 0 0 0 0 0 0 0 0 0 0 0 0 0 0
0 0 0 0 0 0 0 0 0 0 0 0 0 0 0 0 0 0 0 0 0 0 0 0 0 0 0 0 0 0 0 0 0 0 0 0 0 0
0 0 0 0 0 0 0 0 0 0 0 0 0 0 0 0 0 0 0 0 0 0 0 0 0 0 0 0 0 0 0 0 0 0 0 0 0 0
0 0 0 0 0 0 0 0 0 0 0 0 0 0 0 0 0 0 0 0 0 0 0 0 0 0 0 0 0 0 0 0 0 0 0 0 0 0
0 0 0 0 0 0 0 0 0 0 0 0 0 0 0 0 0 0 0 0 0 0 0 0 0 0 0 0 0 0 0 0 0 0 0 0 0 0
0 0 0 0 0 0 0 0 0 0 0 0 0 0 0 0 0 0 0 0 0 0 0 0 0 0 0 0 0 0 0 0 0 0 0 0 0 0
0 0 0 0 0 0 0 0 0 0 0 0 0 0 0 0 0 0 0 0 0 0 0 0 0 0 0 0 0 0 0 0 0 0 0 0 0 0
0 0 0 0 0 0 0 0 0 0 0 0 0 0 0 0 0 0 0 0 0 0 0 0 0 0 0 0 0 0 0 0 0 0 0 0 0 0
0 0 0 0 0 0 0 0 0 0 0 0 0 0 0 0 0 0 0 0 0 0 0 0 0 0 0 0 0 0 0 0 0 0 0 0 0 0
0 0 0 0 0 0 0 0 0 0 0 0 0 0 0 0 0 0 0 0 0 0 0 0 0 0 0 0 0 0 0 0 0 0 0 0 0 0
0 0 0 0 0 0 0 0 0 0 0 0 0 0 0 0 0 0 0 0 0 0 0 0 0 0 0 0 0 0 0 0 0 0 0 0 0 0
0 0 0 0 0 0 0 0 0 0 0 0 0 0 0 0 0 0 0 0 0 0 0 0 0 0 0 0 0 0 0 0 0 0 0 0 0 0
-0 -0 -0 0 0 0 0 0 0 0 0 0 0 0 0 0 0 0 0 0 0 0 0 0 0 0 0 0 0 0 0 0 0 0 0 0 0 0
-0 -0 -0 -0 0 0 0 0 0 0 0 0 0 0 0 0 0 0 0 0 0 0 0 0 0 0 0 0 0 0 0 0 0 0 0 0 0 0
-0 -0 -0 -0 0 0 0 0 0 0 0 0 0 0 0 0 0 0 0 0 0 0 0 0 0 0 0 0 0 0 0 0 0 0 0 0 0 0
-0 -0 -0 -0 -0 -0 0 0 0 0 0 0 0 0 0 0 0 0 0 0 0 0 0 0 0 0 0 0 0 0 0 0 0 0 0 0 0 0
Wind_Speed
13 14 13 13 13 10 9 8 8 8 10 12 9 7 5 5 6 9 10 10 13 13 15 16 17 18 21 19 18 18 23 23 15 12 14 19 18 16
12 13 16 14 12 8 9 10 9 11 9 7 5 5 6 4 4 8 8 9 11 13 13 17 22 26 25 24 25 24 22 23 23 17 16 18 18 16
13 14 17 15 8 5 7 9 10 10 10 7 5 5 6 6 5 3 5 6 8 13 14 16 22 26 25 24 24 25 24 21 21 18 17 18 18 17
14 13 14 11 10 6 5 9 10 10 10 9 6 7 7 7 9 8 5 6 7 13 17 15 16 20 24 23 22 22 22 21 19 17 15 16 17 16
14 12 11 13 13 9 5 7 8 7 8 7 7 8 7 6 8 8 6 7 9 12 14 15 17 17 18 20 20 19 17 16 15 15 15 14 14 14
13 12 11 12 13 11 6 8 10 8 6 6 8 10 9 6 9 9 8 6 8 10 11 11 12 15 16 17 17 17 15 16 14 13 12 12 11 11
12 12 11 16 20 14 4 5 7 6 1 4 7 9 10 9 10 9 10 8 5 5 8 9 8 9 11 12 13 14 15 15 14 15 14 13 13 12
10 11 12 14 18 23 25 22 15 5 1 3 3 5 5 6 7 10 12 10 5 3 7 6 7 8 7 8 12 13 14 16 16 17 17 16 14 12
11 10 10 12 14 12 18 23 24 27 20 8 8 8 4 5 0 8 9 11 9 3 6 6 7 7 4 7 14 15 15 16 16 17 17 16 14 12
11 12 13 13 15 14 13 15 16 17 18 13 15 13 10 8 7 4 7 12 12 7 5 6 5 7 9 10 16 18 18 18 17 16 15 14 13 11
13 14 16 16 22 22 16 16 16 15 18 25 27 27 29 27 17 6 5 9 7 5 6 5 5 6 8 10 10 18 20 18 17 15 13 12 9 6
10 14 20 22 25 25 18 15 15 14 14 15 19 21 20 21 23 15 9 6 7 5 5 3 4 5 6 5 7 9 11 15 15 14 12 8 3 0
9 11 13 23 25 26 21 16 15 13 13 13 11 12 12 12 13 14 13 9 8 6 5 3 4 4 5 6 3 5 5 5 5 6 8 7 6 4
9 10 13 21 24 24 20 22 21 15 10 10 10 11 11 11 11 12 13 13 13 11 10 7 4 4 5 6 5 5 3 2 2 1 1 2 2 1
11 15 18 20 19 17 22 22 17 12 10 10 10 10 9 9 9 8 11 13 14 13 12 12 8 6 4 5 6 7 7 5 3 2 1 1 2 2
10 12 14 14 14 15 15 13 11 11 11 10 9 8 8 8 8 8 7 8 10 9 11 11 8 6 5 5 5 6 4 4 4 1 1 2 3 3
8 8 9 9 10 10 10 10 10 10 10 9 8 8 8 8 8 8 7 8 8 7 7 7 6 6 6 3 4 4 3 2 2 1 3 4 4 3
7 8 8 9 9 9 9 9 9 9 9 8 8 9 8 8 8 7 7 7 7 7 6 5 4 3 5 7 7 3 2 2 1 2 3 4 5 4
7 7 7 7 7 7 7 7 7 7 7 7 8 8 7 7 7 7 6 6 6 6 5 5 4 2 2 4 5 6 3 1 2 3 3 4 6 6
6 6 6 6 6 6 6 6 6 5 5 5 5 5 6 6 6 5 5 5 4 4 4 4 5 5 4 3 2 2 2 3 3 4 4 5 7 10
5 5 5 5 5 5 5 4 4 4 4 4 4 4 4 4 4 4 4 4 4 3 2 3 3 4 2 1 2 2 0 1 5 6 6 6 7 7
5 5 5 5 4 4 4 4 4 4 3 3 3 3 3 3 3 3 2 2 2 2 3 2 2 3 2 3 3 4 4 4 6 9 11 10 7 6
5 5 5 5 5 4 3 4 4 4 4 3 2 2 2 3 3 3 3 3 3 4 4 4 3 3 3 4 4 5 6 6 6 5 6 8 12 15
Wind_Direction
289 273 264 265 266 264 261 262 265 251 245 243 237 199 199 201 203 199 208 193 196 195 197 183 161 149 138 137 134 135 119 111 109 116 136 131 126 119
294 290 277 264 260 256 249 245 240 249 245 242 257 227 178 162 174 203 174 151 151 147 150 148 143 142 131 133 134 133 132 133 138 148 149 133 126 119
312 305 292 269 273 271 262 251 238 238 239 235 240 229 198 150 134 127 136 137 127 126 127 133 132 133 135 138 138 139 139 140 136 155 152 134 127 123
323 320 322 303 256 253 286 277 248 229 228 223 210 199 198 161 161 142 141 133 127 129 123 120 122 128 132 135 140 141 140 144 146 148 143 133 128 125
328 326 327 338 315 285 291 286 257 240 226 215 201 192 178 158 159 140 136 143 141 131 125 124 123 123 126 131 134 133 132 131 135 144 140 130 127 124
330 330 330 342 326 290 285 293 267 232 219 215 210 191 172 158 158 138 137 125 133 138 134 132 129 125 125 124 124 124 125 127 131 125 116 113 113 110
335 336 336 353 359 354 337 301 284 258 239 225 197 176 165 160 160 151 131 109 83 114 126 125 124 125 126 131 133 131 133 131 130 125 123 115 108 106
341 348 350 357 5 17 30 34 29 359 267 265 180 113 130 140 143 157 140 137 119 45 95 89 123 128 140 149 142 137 132 132 133 131 127 119 116 111
356 8 10 6 15 9 24 32 34 39 40 34 63 49 25 21 73 158 166 158 125 69 102 67 59 71 79 104 121 127 128 130 128 125 123 121 117 110
10 28 29 22 27 27 25 30 28 29 37 40 55 56 57 32 20 38 93 95 86 58 46 93 72 58 32 60 97 107 109 108 110 113 116 116 109 101
20 30 35 31 33 34 31 31 31 21 21 34 42 41 40 45 40 44 90 124 101 60 21 93 107 87 51 30 46 94 101 103 107 108 108 105 110 123
20 37 39 37 34 37 37 35 33 23 21 23 28 31 30 31 37 39 31 76 94 87 10 71 117 113 91 36 28 33 84 95 91 94 95 82 46 268
23 38 33 40 42 39 37 35 35 30 30 36 33 32 33 29 31 35 38 48 66 78 30 58 115 101 109 122 85 46 45 62 85 91 94 72 43 6
39 43 37 36 39 42 39 35 32 31 32 38 39 37 34 34 42 51 55 56 57 60 42 50 77 85 124 129 128 122 112 102 109 124 113 128 140 87
42 42 40 39 37 39 40 36 34 31 32 37 39 38 36 32 36 55 70 73 66 55 48 47 54 50 66 108 125 138 153 155 162 168 194 261 299 288
28 35 37 35 39 38 37 36 34 33 33 32 32 37 35 37 37 33 51 67 75 70 59 54 55 66 79 88 118 137 149 148 154 157 304 274 256 255
36 36 36 33 31 33 36 35 35 32 34 32 29 32 34 36 37 31 42 59 67 70 63 52 58 68 69 70 113 118 134 133 95 8 303 292 285 280
41 40 36 33 30 27 27 30 32 32 28 28 29 29 30 30 36 38 41 55 66 60 49 34 41 107 113 69 35 72 112 98 57 307 295 291 284 268
51 50 42 35 29 27 26 25 26 26 24 26 28 24 24 28 30 34 36 47 60 56 48 28 27 23 148 130 69 22 30 34 307 283 281 278 282 289
45 43 40 35 28 21 20 20 16 14 19 15 20 22 19 20 24 26 28 31 44 47 51 41 37 25 25 30 7 44 41 318 306 298 296 295 292 286
25 23 21 20 19 11 5 5 5 5 12 357 358 7 13 9 12 9 12 18 16 22 30 41 26 354 335 298 269 278 287 273 292 295 303 305 300 291
357 356 356 352 352 352 343 338 335 339 352 351 351 345 341 336 333 331 331 339 349 337 319 313 303 303 298 291 299 308 303 302 285 267 260 260 272 283
340 342 342 339 334 327 323 317 316 320 325 325 316 302 288 284 284 285 286 282 284 280 276 278 278 275 279 279 278 281 283 285 288 284 265 249 254 266